Back to catalog

COSMOS 1317 DEB

LostHEO
NORAD 35508·DEBRIS·🇷🇺 Russia

Launched Oct 31, 1981 from Plesetsk Cosmodrome

Loading…

Next Passes (next 24 hours)

TLE

StaleSource: Space-Track

Epoch: Oct 18, 2010, 18:05 UTC

1 35508U 81108H   10291.75385569  .00000654  00000-0  00000+0 0  9994
2 35508  71.3949 321.1066 5287555 132.4813   3.2597  2.00432404 15678

Track COSMOS 1317 DEB in real time with AllMySat

Download on the App Store